| time (UTC) | temp C | wind direction | speed KPH | gust KPH | rain 1hr cm | rain 24hr cm | rain mn cm | humidity % | barometer mb |
| 20260902093013 | 18 | 242 | 9.7 | 22.5 | 0.00 | 0.69 | 0.43 | 80 | 1014.3 |
| 20260902091512 | 17 | 220 | 4.8 | 19.3 | 0.00 | 0.69 | 0.43 | 83 | 1014.4 |
| 20260902090007 | 17 | 248 | 12.9 | 20.9 | 0.00 | 0.69 | 0.43 | 84 | 1014.7 |
| 20260902084515 | 17 | 238 | 9.7 | 16.1 | 0.00 | 0.69 | 0.43 | 85 | 1014.7 |
| 20260902083004 | 17 | 172 | 4.8 | 19.3 | 0.00 | 0.69 | 0.43 | 86 | 1014.7 |
| 20260902081503 | 16 | 239 | 8.0 | 17.7 | 0.00 | 0.69 | 0.43 | 87 | 1014.6 |
| 20260902080001 | 16 | 219 | 9.7 | 17.7 | 0.00 | 0.69 | 0.43 | 88 | 1014.6 |
| 20260902074612 | 16 | 212 | 6.4 | 17.7 | 0.00 | 0.69 | 0.43 | 89 | 1014.6 |
| 20260902073058 | 16 | 228 | 4.8 | 16.1 | 0.00 | 0.69 | 0.43 | 90 | 1014.5 |
| 20260902071557 | 15 | 228 | 6.4 | 16.1 | 0.00 | 0.69 | 0.43 | 90 | 1014.5 |
| 20260902070053 | 15 | 200 | 8.0 | 20.9 | 0.00 | 0.69 | 0.43 | 91 | 1014.4 |
| 20260902064551 | 15 | 215 | 9.7 | 17.7 | 0.00 | 0.69 | 0.43 | 91 | 1014.4 |
| 20260902063109 | 15 | 222 | 9.7 | 17.7 | 0.00 | 0.69 | 0.43 | 91 | 1014.3 |
| 20260902061552 | 14 | 204 | 9.7 | 20.9 | 0.00 | 0.69 | 0.43 | 92 | 1014.2 |
| 20260902054559 | 14 | 234 | 8.0 | 17.7 | 0.00 | 0.69 | 0.43 | 92 | 1014.3 |
| 20260902053045 | 14 | 217 | 6.4 | 16.1 | 0.00 | 0.69 | 0.43 | 91 | 1014.3 |
| 20260902051550 | 13 | 217 | 9.7 | 16.1 | 0.00 | 0.69 | 0.43 | 92 | 1014.3 |
| 20260902050043 | 13 | 205 | 6.4 | 17.7 | 0.00 | 0.69 | 0.43 | 92 | 1014.1 |
| 20260902044542 | 13 | 206 | 8.0 | 16.1 | 0.00 | 0.69 | 0.43 | 92 | 1014.1 |
| 20260902043141 | 13 | 219 | 8.0 | 16.1 | 0.00 | 0.69 | 0.43 | 91 | 1014.1 |
| 20260902041558 | 13 | 216 | 8.0 | 12.9 | 0.00 | 0.69 | 0.43 | 91 | 1014.2 |
| 20260902040038 | 13 | 214 | 8.0 | 14.5 | 0.00 | 0.69 | 0.43 | 91 | 1014.3 |
| 20260902034637 | 13 | 191 | 6.4 | 12.9 | 0.00 | 0.71 | 0.43 | 91 | 1014.4 |
| 20260902033036 | 13 | 206 | 6.4 | 14.5 | 0.00 | 0.71 | 0.43 | 91 | 1014.5 |
| 20260902031538 | 13 | 209 | 4.8 | 12.9 | 0.00 | 0.71 | 0.43 | 91 | 1014.5 |
| 20260902030034 | 12 | 201 | 4.8 | 9.7 | 0.00 | 0.71 | 0.43 | 90 | 1014.5 |
| 20260902024534 | 12 | 216 | 4.8 | 9.7 | 0.00 | 0.89 | 0.43 | 90 | 1014.6 |
| 20260902023033 | 12 | 219 | 6.4 | 11.3 | 0.00 | 0.89 | 0.43 | 90 | 1014.6 |
| 20260902021532 | 12 | 197 | 6.4 | 9.7 | 0.00 | 0.89 | 0.43 | 90 | 1014.6 |
| 20260902020033 | 12 | 231 | 6.4 | 9.7 | 0.00 | 0.89 | 0.43 | 89 | 1014.6 |
| 20260902014533 | 12 | 208 | 3.2 | 8.0 | 0.00 | 0.89 | 0.43 | 89 | 1014.7 |
| 20260902013027 | 12 | 209 | 3.2 | 8.0 | 0.00 | 0.89 | 0.43 | 89 | 1014.7 |
| 20260902011525 | 13 | 214 | 4.8 | 9.7 | 0.00 | 0.89 | 0.43 | 88 | 1014.7 |
| 20260902010025 | 13 | 239 | 4.8 | 9.7 | 0.00 | 0.89 | 0.43 | 88 | 1014.6 |
| 20260902004529 | 13 | 247 | 4.8 | 11.3 | 0.00 | 0.89 | 0.43 | 88 | 1014.6 |
| 20260902003101 | 13 | 247 | 3.2 | 11.3 | 0.00 | 0.89 | 0.43 | 87 | 1014.7 |
| 20260902001521 | 13 | 266 | 4.8 | 11.3 | 0.00 | 0.89 | 0.43 | 87 | 1014.7 |
| 20260902000029 | 13 | 239 | 4.8 | 12.9 | 0.00 | 0.89 | 0.43 | 86 | 1014.8 |
| 20260901234515 | 14 | 241 | 8.0 | 20.9 | 0.43 | 0.89 | 0.43 | 86 | 1014.8 |
| 20260901233015 | 15 | 281 | 14.5 | 29.0 | 0.43 | 0.89 | 0.43 | 88 | 1014.8 |
| 20260901231510 | 14 | 236 | 3.2 | 8.0 | 0.43 | 0.89 | 0.43 | 90 | 1014.8 |
| 20260901230013 | 14 | 262 | 6.4 | 14.5 | 0.43 | 0.89 | 0.43 | 90 | 1014.5 |
| 20260901224508 | 14 | 219 | 3.2 | 8.0 | 0.00 | 0.48 | 0.00 | 88 | 1014.5 |
| 20260901223005 | 14 | 215 | 4.8 | 6.4 | 0.00 | 0.48 | 0.00 | 88 | 1014.4 |
| 20260901221503 | 14 | 246 | 1.6 | 8.0 | 0.00 | 0.48 | 0.00 | 88 | 1014.4 |
| 20260901220005 | 14 | 207 | 3.2 | 8.0 | 0.00 | 0.48 | 0.00 | 87 | 1014.5 |
| 20260901214600 | 14 | 221 | 3.2 | 9.7 | 0.00 | 0.48 | 0.48 | 87 | 1014.5 |
| 20260901213103 | 14 | 271 | 1.6 | 6.4 | 0.00 | 0.48 | 0.48 | 86 | 1014.4 |
| 20260901211558 | 15 | 253 | 3.2 | 9.7 | 0.00 | 0.48 | 0.48 | 86 | 1014.1 |
| 20260901210128 | 15 | 249 | 1.6 | 8.0 | 0.00 | 0.48 | 0.48 | 86 | 1014.1 |
| 20260901204556 | 15 | 253 | 3.2 | 9.7 | 0.00 | 0.48 | 0.48 | 86 | 1014.0 |
| 20260901203055 | 15 | 241 | 4.8 | 8.0 | 0.00 | 0.48 | 0.48 | 85 | 1014.1 |
| 20260901201554 | 15 | 264 | 3.2 | 9.7 | 0.03 | 0.48 | 0.48 | 85 | 1013.9 |
| 20260901200053 | 15 | 229 | 3.2 | 8.0 | 0.15 | 0.48 | 0.48 | 86 | 1013.7 |
| 20260901194559 | 15 | 265 | 4.8 | 12.9 | 0.25 | 0.48 | 0.48 | 87 | 1013.7 |
| 20260901193050 | 15 | 230 | 1.6 | 4.8 | 0.25 | 0.48 | 0.48 | 87 | 1013.5 |
| 20260901191600 | 16 | 276 | 0.0 | 4.8 | 0.23 | 0.46 | 0.46 | 86 | 1013.5 |
| 20260901190112 | 16 | 284 | 8.0 | 20.9 | 0.13 | 0.33 | 0.33 | 85 | 1013.4 |
| 20260901184548 | 17 | 294 | 4.8 | 12.9 | 0.00 | 0.23 | 0.23 | 84 | 1013.2 |
| 20260901183045 | 17 | 231 | 4.8 | 11.3 | 0.00 | 0.23 | 0.23 | 84 | 1013.0 |
| 20260901181544 | 17 | 241 | 1.6 | 8.0 | 0.00 | 0.23 | 0.23 | 84 | 1013.0 |
| 20260901180042 | 17 | 261 | 3.2 | 11.3 | 0.00 | 0.23 | 0.23 | 83 | 1012.9 |
| 20260901174549 | 17 | 274 | 6.4 | 16.1 | 0.00 | 0.23 | 0.23 | 83 | 1012.6 |
| 20260901173040 | 17 | 269 | 11.3 | 19.3 | 0.00 | 0.23 | 0.23 | 82 | 1012.6 |
| 20260901171545 | 17 | 280 | 9.7 | 17.7 | 0.00 | 0.23 | 0.23 | 82 | 1012.7 |
| 20260901170038 | 17 | 280 | 14.5 | 22.5 | 0.00 | 0.23 | 0.23 | 80 | 1012.5 |
| 20260901164540 | 18 | 351 | 9.7 | 16.1 | 0.00 | 0.23 | 0.23 | 80 | 1012.5 |
| 20260901163100 | 18 | 280 | 8.0 | 20.9 | 0.00 | 0.23 | 0.23 | 81 | 1012.4 |
| 20260901161536 | 18 | 316 | 9.7 | 20.9 | 0.00 | 0.23 | 0.23 | 82 | 1012.4 |
| 20260901160034 | 18 | 279 | 16.1 | 25.7 | 0.00 | 0.23 | 0.23 | 80 | 1012.4 |
| 20260901154547 | 18 | 310 | 12.9 | 24.1 | 0.00 | 0.25 | 0.23 | 78 | 1012.2 |
| 20260901153038 | 18 | 293 | 14.5 | 24.1 | 0.00 | 0.25 | 0.23 | 77 | 1012.2 |
| 20260901151534 | 18 | 276 | 14.5 | 22.5 | 0.00 | 0.25 | 0.23 | 76 | 1012.2 |
| 20260901150030 | 18 | 285 | 16.1 | 22.5 | 0.00 | 0.25 | 0.23 | 77 | 1012.1 |
| 20260901144529 | 18 | 284 | 9.7 | 20.9 | 0.00 | 0.25 | 0.23 | 77 | 1012.0 |
| 20260901143027 | 18 | 295 | 11.3 | 19.3 | 0.00 | 0.25 | 0.23 | 77 | 1012.0 |
| 20260901141526 | 18 | 291 | 17.7 | 22.5 | 0.00 | 0.25 | 0.23 | 79 | 1012.0 |
| 20260901140025 | 17 | 291 | 9.7 | 20.9 | 0.00 | 0.25 | 0.23 | 81 | 1011.9 |
| 20260901134525 | 18 | 300 | 9.7 | 17.7 | 0.00 | 0.99 | 0.23 | 78 | 1011.9 |
| 20260901133023 | 17 | 328 | 12.9 | 20.9 | 0.00 | 0.99 | 0.23 | 85 | 1011.9 |
| 20260901131522 | 17 | 311 | 11.3 | 19.3 | 0.00 | 0.99 | 0.23 | 85 | 1012.0 |
| 20260901130021 | 16 | 312 | 16.1 | 20.9 | 0.00 | 0.99 | 0.23 | 85 | 1011.9 |
| 20260901124521 | 16 | 307 | 16.1 | 24.1 | 0.00 | 1.37 | 0.23 | 86 | 1011.9 |
| 20260901123021 | 16 | 313 | 19.3 | 25.7 | 0.00 | 1.37 | 0.23 | 85 | 1011.9 |
| 20260901121531 | 17 | 309 | 17.7 | 22.5 | 0.00 | 1.37 | 0.23 | 85 | 1011.9 |
| 20260901120018 | 17 | 298 | 12.9 | 17.7 | 0.00 | 1.37 | 0.23 | 83 | 1012.0 |
| 20260901114522 | 17 | 259 | 9.7 | 24.1 | 0.00 | 1.55 | 0.23 | 82 | 1012.0 |
| 20260901113014 | 17 | 277 | 12.9 | 24.1 | 0.00 | 1.55 | 0.23 | 83 | 1012.0 |
| 20260901111513 | 16 | 280 | 19.3 | 25.7 | 0.00 | 1.55 | 0.23 | 85 | 1011.9 |
| 20260901110012 | 16 | 300 | 17.7 | 24.1 | 0.00 | 1.55 | 0.23 | 87 | 1011.9 |
| 20260901104515 | 16 | 300 | 19.3 | 25.7 | 0.00 | 1.73 | 0.23 | 88 | 1011.7 |
| 20260901103015 | 16 | 288 | 17.7 | 27.4 | 0.00 | 1.73 | 0.23 | 86 | 1011.5 |
| 20260901101510 | 16 | 296 | 16.1 | 22.5 | 0.00 | 1.73 | 0.23 | 86 | 1011.4 |
| 20260901100004 | 16 | 296 | 16.1 | 20.9 | 0.00 | 1.73 | 0.23 | 86 | 1011.3 |
| 20260901094505 | 16 | 300 | 14.5 | 19.3 | 0.00 | 1.73 | 0.23 | 87 | 1011.1 |
| 20260901093102 | 16 | 272 | 8.0 | 17.7 | 0.00 | 1.73 | 0.23 | 89 | 1011.1 |